Flag for United Kingdom Weather past 2 weeks in Edinburgh, Scotland, United Kingdom

Now
68 °F

Passing clouds.


Feels Like: 68 °F
Forecast: 49 / 60 °F
Wind: 16 mph from Southwest

Location: Edinburgh Airport

Current Time: Sep 30, 2014 at 2:13:38 PM

Latest Report: Sep 30, 2014 at 1:20 PM


Visibility: N/A

Pressure: 30.07 "Hg

Humidity: 60%

Dew point: 54 °F

Location of EdinburghLocation

Historic Weather in Edinburgh — Graph

°F

Edinburgh temperature yesterday

Maximum temperature yesterday: 66 °F (at 1:50 PM)
Minimum temperature yesterday: 45 °F (at 3:20 AM)
Average temperature yesterday: 56 °F

Past Weeks' High & Low Weather Summary

 TemperatureHumidityPressure
High68 °F (Sep 30, 12:50 PM)100% (Sep 15, 1:50 PM)30.36 "Hg (Sep 15, 1:50 PM)
Low41 °F (Sep 21, 2:50 AM)45% (Sep 26, 3:20 PM)29.80 "Hg (Sep 23, 11:50 PM)
Average56 °F86%30.05 "Hg
* Reported Sep 15 12:20 PM — Sep 30 12:50 PM, Edinburgh, Weather by CustomWeather, © 2014

Note: Actual official high and low records may vary slightly from our data, if they occured in-between our weather recording intervals... More about our weather records

Advertising

Edinburgh weather history for previous 24 hours

 ConditionsComfort  
Time TempWeatherWind HumidityBarometerVisibility
12:50 PM
Sep 30
68 °FPassing clouds.17 mph60%30.07 "HgN/A
12:20 PM66 °FPassing clouds.14 mph64%30.07 "HgN/A
11:50 AM66 °FPassing clouds.14 mph64%30.07 "HgN/A
11:20 AM66 °FPassing clouds.16 mph68%30.07 "HgN/A
10:50 AM64 °FPassing clouds.17 mph73%30.07 "HgN/A
10:20 AM63 °FPassing clouds.15 mph77%30.07 "HgN/A
9:50 AM63 °FPassing clouds.13 mph73%30.07 "HgN/A
9:20 AM61 °FSunny.2 mph77%30.07 "Hg10 mi
8:50 AM55 °FSunny.No wind94%30.04 "Hg10 mi
8:20 AM52 °FSunny.2 mph94%30.04 "Hg10 mi
7:50 AM54 °FPassing clouds.No wind94%30.04 "HgN/A
7:20 AM52 °FClear.3 mph100%30.04 "Hg10 mi
6:50 AM52 °FClear.3 mph100%30.04 "Hg10 mi
6:20 AM54 °FClear.No wind94%30.04 "Hg10 mi
5:50 AM54 °FClear.2 mph94%30.04 "Hg10 mi
5:20 AM52 °FClear.No wind100%30.04 "Hg10 mi
4:50 AM54 °FClear.No wind94%30.04 "Hg10 mi
4:20 AM54 °FPassing clouds.No wind94%30.04 "HgN/A
3:50 AM54 °FPassing clouds.No wind94%30.04 "HgN/A
3:20 AM54 °FPassing clouds.No wind94%30.04 "HgN/A
2:50 AM52 °FMostly cloudy.2 mph100%30.04 "HgN/A
2:20 AM52 °FMostly cloudy.No wind100%30.07 "HgN/A
1:50 AM52 °FPassing clouds.No wind100%30.07 "HgN/A
1:20 AM52 °FPassing clouds.3 mph94%30.07 "HgN/A
12:50 AM52 °FPassing clouds.2 mph100%30.07 "HgN/A
12:20 AM52 °FPassing clouds.No wind94%30.07 "HgN/A
11:50 PM
Sep 29
52 °FPassing clouds.No wind100%30.07 "HgN/A
11:20 PM50 °FPassing clouds.No wind100%30.07 "HgN/A
10:50 PM50 °FClear.No wind100%30.07 "Hg10 mi
10:20 PM52 °FClear.No wind94%30.07 "Hg10 mi
9:50 PM54 °FClear.No wind94%30.07 "Hg10 mi
9:20 PM54 °FClear.No wind88%30.07 "Hg10 mi
8:50 PM54 °FPassing clouds.3 mph100%30.07 "HgN/A
8:20 PM55 °FPassing clouds.3 mph94%30.07 "HgN/A
7:50 PM57 °FScattered clouds.No wind88%30.07 "HgN/A
7:20 PM63 °FPassing clouds.6 mph73%30.07 "HgN/A
6:50 PM61 °FPassing clouds.5 mph77%30.07 "HgN/A
6:20 PM64 °FPassing clouds.6 mph68%30.07 "HgN/A
5:50 PM64 °FPassing clouds.5 mph68%30.07 "HgN/A
5:20 PM64 °FPassing clouds.6 mph68%30.07 "HgN/A
4:50 PM66 °FScattered clouds.7 mph64%30.07 "HgN/A
4:20 PM66 °FScattered clouds.9 mph64%30.07 "HgN/A
3:50 PM66 °FScattered clouds.10 mph64%30.07 "HgN/A
3:20 PM66 °FPartly sunny.9 mph64%30.07 "HgN/A
2:50 PM64 °FScattered clouds.9 mph73%30.07 "HgN/A
2:20 PM66 °FScattered clouds.7 mph68%30.07 "HgN/A
Weather by CustomWeather, © 2014

See weather overviewHow to use our weather pages